This is the latest recevied weather packets stored in our database for station/object N7AWM. If no packets are shown the sender has not sent any weather packets the latest 10 day(s).
| Time | Temp. | Humidity | Pressure | Rain* | Wind** | Luminosity | Snow |
|---|---|---|---|---|---|---|---|
| 1778003998 | 22.78° C | 46% | 1007.3 hPa | 0 mm | - | - | - |
| 1778003158 | 22.78° C | 49% | 1007.4 hPa | 0 mm | - | - | - |
| 1778002318 | 22.22° C | 49% | 1007.3 hPa | 0 mm | - | - | - |
| 1778001478 | 22.22° C | 48% | 1007.3 hPa | 0 mm | - | - | - |
| 1778000638 | 21.67° C | 49% | 1007.3 hPa | 0 mm | - | - | - |
| 1777999798 | 21.67° C | 48% | 1007.3 hPa | 0 mm | - | - | - |
| 1777998958 | 21.11° C | 48% | 1007.2 hPa | 0 mm | - | - | - |
| 1777998118 | 20.56° C | 50% | 1007.1 hPa | 0 mm | - | - | - |
| 1777997278 | 20° C | 51% | 1007.1 hPa | 0 mm | - | - | - |
| 1777996438 | 20.56° C | 51% | 1007 hPa | 0 mm | - | - | - |
| 1777995598 | 20.56° C | 50% | 1007 hPa | 0 mm | - | - | - |
| 1777994758 | 18.89° C | 53% | 1006.9 hPa | 0 mm | - | - | - |
| 1777993919 | 18.89° C | 52% | 1006.9 hPa | 0 mm | - | - | - |
| 1777993079 | 18.33° C | 50% | 1006.7 hPa | 0 mm | - | - | - |
| 1777992239 | 17.78° C | 53% | 1006.5 hPa | 0 mm | - | - | - |
| 1777991399 | 17.22° C | 58% | 1006.3 hPa | 0 mm | - | - | - |
| 1777990559 | 18.33° C | 54% | 1006.3 hPa | 0 mm | - | - | - |
| 1777989719 | 17.22° C | 52% | 1006.2 hPa | 0 mm | - | - | - |
| 1777988879 | 16.67° C | 50% | 1006.1 hPa | 0 mm | - | - | - |
| 1777988039 | 16.11° C | 53% | 1006 hPa | 0 mm | - | - | - |
| 1777987199 | 15.56° C | 52% | 1005.9 hPa | 0 mm | - | - | - |
| 1777986359 | 16.11° C | 52% | 1005.8 hPa | 0 mm | - | - | - |
| 1777985519 | 16.11° C | 51% | 1005.6 hPa | 0 mm | - | - | - |
| 1777984679 | 16.67° C | 49% | 1005.4 hPa | 0 mm | - | - | - |
| 1777983839 | 17.22° C | 47% | 1005.2 hPa | 0 mm | - | - | - |
* Rain latest hour (hover to see other rain measurements)
** Current wind speed in m/s (hover to see current wind gust speed)